| time (UTC) | temp C | wind direction | speed KPH | gust KPH | rain 1hr cm | rain 24hr cm | rain mn cm | humidity % | barometer mb |
| 20260906014611 | 25 | 148 | 0.0 | 0.0 | 0.00 | 0.00 | 0.00 | 33 | 984.1 |
| 20260906014110 | 25 | 218 | 0.0 | 1.6 | 0.00 | 0.00 | 0.00 | 32 | 984.1 |
| 20260906013611 | 25 | 218 | 0.0 | 1.6 | 0.00 | 0.00 | 0.00 | 31 | 984.1 |
| 20260906013109 | 25 | 199 | 0.0 | 0.0 | 0.00 | 0.00 | 0.00 | 31 | 984.0 |
| 20260906012609 | 26 | 193 | 0.0 | 0.0 | 0.00 | 0.00 | 0.00 | 30 | 984.1 |
| 20260906012110 | 26 | 193 | 0.0 | 3.2 | 0.00 | 0.00 | 0.00 | 30 | 984.0 |
| 20260906011610 | 26 | 202 | 0.0 | 3.2 | 0.00 | 0.00 | 0.00 | 29 | 984.1 |
| 20260906011109 | 27 | 179 | 0.0 | 3.2 | 0.00 | 0.00 | 0.00 | 28 | 984.1 |
| 20260906010609 | 27 | 163 | 1.6 | 6.4 | 0.00 | 0.00 | 0.00 | 28 | 984.1 |
| 20260906010110 | 27 | 155 | 1.6 | 6.4 | 0.00 | 0.00 | 0.00 | 27 | 984.1 |
| 20260906005608 | 27 | 216 | 1.6 | 6.4 | 0.00 | 0.00 | 0.00 | 27 | 984.4 |
| 20260906005111 | 28 | 188 | 1.6 | 6.4 | 0.00 | 0.00 | 0.00 | 26 | 984.4 |
| 20260906005107 | 28 | 192 | 0.0 | 6.4 | 0.00 | 0.00 | 0.00 | 27 | 984.3 |
| 20260906004106 | 28 | 194 | 1.6 | 8.0 | 0.00 | 0.00 | 0.00 | 26 | 984.4 |
| 20260906003612 | 28 | 200 | 1.6 | 6.4 | 0.00 | 0.00 | 0.00 | 26 | 984.4 |
| 20260906003607 | 29 | 205 | 0.0 | 8.0 | 0.00 | 0.00 | 0.00 | 26 | 984.4 |
| 20260906003212 | 29 | 197 | 1.6 | 8.0 | 0.00 | 0.00 | 0.00 | 27 | 984.3 |
| 20260906002607 | 29 | 217 | 1.6 | 8.0 | 0.00 | 0.00 | 0.00 | 26 | 984.3 |
| 20260906001608 | 28 | 157 | 3.2 | 11.3 | 0.00 | 0.00 | 0.00 | 27 | 984.3 |
| 20260906001108 | 28 | 149 | 4.8 | 11.3 | 0.00 | 0.00 | 0.00 | 26 | 984.3 |
| 20260906000606 | 29 | 163 | 4.8 | 11.3 | 0.00 | 0.00 | 0.00 | 27 | 984.4 |
| 20260906000107 | 29 | 189 | 4.8 | 9.7 | 0.00 | 0.00 | 0.00 | 26 | 984.3 |
| 20260905235607 | 30 | 162 | 4.8 | 11.3 | 0.00 | 0.00 | 0.00 | 26 | 984.3 |
| 20260905235107 | 30 | 150 | 3.2 | 11.3 | 0.00 | 0.00 | 0.00 | 26 | 984.0 |
| 20260905234607 | 29 | 191 | 1.6 | 9.7 | 0.00 | 0.00 | 0.00 | 27 | 984.0 |
| 20260905234107 | 28 | 207 | 0.0 | 3.2 | 0.00 | 0.00 | 0.00 | 29 | 984.1 |
| 20260905233607 | 27 | 187 | 0.0 | 4.8 | 0.00 | 0.00 | 0.00 | 29 | 984.1 |
| 20260905233107 | 27 | 179 | 1.6 | 6.4 | 0.00 | 0.00 | 0.00 | 28 | 984.1 |
| 20260905232608 | 27 | 159 | 3.2 | 9.7 | 0.00 | 0.00 | 0.00 | 28 | 984.0 |
| 20260905232109 | 28 | 158 | 4.8 | 12.9 | 0.00 | 0.00 | 0.00 | 28 | 984.1 |
| 20260905231608 | 28 | 184 | 6.4 | 12.9 | 0.00 | 0.00 | 0.00 | 28 | 984.0 |
| 20260905231107 | 28 | 207 | 4.8 | 12.9 | 0.00 | 0.00 | 0.00 | 28 | 984.0 |
| 20260905230606 | 28 | 173 | 1.6 | 12.9 | 0.00 | 0.00 | 0.00 | 27 | 984.0 |
| 20260905230106 | 29 | 78 | 1.6 | 12.9 | 0.00 | 0.00 | 0.00 | 26 | 984.0 |
| 20260905225605 | 29 | 75 | 1.6 | 12.9 | 0.00 | 0.00 | 0.00 | 25 | 983.9 |
| 20260905225105 | 30 | 260 | 0.0 | 3.2 | 0.00 | 0.00 | 0.00 | 25 | 983.9 |
| 20260905224605 | 30 | 150 | 0.0 | 3.2 | 0.00 | 0.00 | 0.00 | 25 | 983.9 |
| 20260905224104 | 30 | 280 | 0.0 | 3.2 | 0.00 | 0.00 | 0.00 | 25 | 984.0 |
| 20260905223605 | 30 | 120 | 0.0 | 6.4 | 0.00 | 0.00 | 0.00 | 25 | 984.1 |
| 20260905223102 | 30 | 120 | 0.0 | 6.4 | 0.00 | 0.00 | 0.00 | 25 | 984.1 |
| 20260905222602 | 30 | 220 | 0.0 | 4.8 | 0.00 | 0.00 | 0.00 | 24 | 984.1 |
| 20260905222103 | 30 | 143 | 0.0 | 1.6 | 0.00 | 0.00 | 0.00 | 25 | 984.0 |
| 20260905221605 | 31 | 252 | 0.0 | 1.6 | 0.00 | 0.00 | 0.00 | 24 | 984.1 |
| 20260905221601 | 30 | 182 | 0.0 | 1.6 | 0.00 | 0.00 | 0.00 | 23 | 984.1 |
| 20260905220600 | 31 | 0 | 0.0 | 4.8 | 0.00 | 0.00 | 0.00 | 23 | 984.1 |
| 20260905220058 | 30 | 348 | 0.0 | 4.8 | 0.00 | 0.00 | 0.00 | 24 | 984.1 |
| 20260905215603 | 31 | 291 | 0.0 | 3.2 | 0.00 | 0.00 | 0.00 | 23 | 984.3 |
| 20260905215559 | 30 | 319 | 0.0 | 3.2 | 0.00 | 0.00 | 0.00 | 23 | 984.1 |
| 20260905214559 | 31 | 155 | 0.0 | 3.2 | 0.00 | 0.00 | 0.00 | 23 | 984.3 |
| 20260905214058 | 31 | 271 | 0.0 | 3.2 | 0.00 | 0.00 | 0.00 | 22 | 984.4 |
| 20260905213556 | 32 | 201 | 0.0 | 3.2 | 0.00 | 0.00 | 0.00 | 23 | 984.4 |
| 20260905213057 | 32 | 263 | 1.6 | 6.4 | 0.00 | 0.00 | 0.00 | 22 | 984.3 |
| 20260905212557 | 32 | 320 | 1.6 | 6.4 | 0.00 | 0.00 | 0.00 | 21 | 984.3 |
| 20260905212057 | 32 | 185 | 1.6 | 14.5 | 0.00 | 0.00 | 0.00 | 23 | 984.3 |
| 20260905211600 | 32 | 13 | 1.6 | 4.8 | 0.00 | 0.00 | 0.00 | 21 | 984.4 |
| 20260905211556 | 32 | 339 | 1.6 | 14.5 | 0.00 | 0.00 | 0.00 | 21 | 984.4 |
| 20260905210557 | 33 | 300 | 0.0 | 4.8 | 0.00 | 0.00 | 0.00 | 22 | 984.5 |
| 20260905210100 | 32 | 212 | 0.0 | 16.1 | 0.00 | 0.00 | 0.00 | 22 | 984.6 |
| 20260905210056 | 33 | 139 | 0.0 | 3.2 | 0.00 | 0.00 | 0.00 | 21 | 984.5 |
| 20260905205702 | 31 | 170 | 0.0 | 16.1 | 0.00 | 0.00 | 0.00 | 23 | 984.6 |
| 20260905204600 | 31 | 212 | 0.0 | 6.4 | 0.00 | 0.00 | 0.00 | 23 | 984.7 |
| 20260905204556 | 31 | 353 | 0.0 | 6.4 | 0.00 | 0.00 | 0.00 | 23 | 984.7 |
| 20260905203557 | 31 | 8 | 0.0 | 4.8 | 0.00 | 0.00 | 0.00 | 24 | 985.0 |
| 20260905203057 | 31 | 293 | 0.0 | 4.8 | 0.00 | 0.00 | 0.00 | 23 | 984.8 |
| 20260905202600 | 30 | 299 | 0.0 | 6.4 | 0.00 | 0.00 | 0.00 | 23 | 985.1 |
| 20260905202556 | 30 | 290 | 0.0 | 6.4 | 0.00 | 0.00 | 0.00 | 24 | 985.0 |
| 20260905201557 | 30 | 210 | 0.0 | 1.6 | 0.00 | 0.00 | 0.00 | 23 | 985.0 |
| 20260905201101 | 31 | 268 | 0.0 | 3.2 | 0.00 | 0.00 | 0.00 | 24 | 985.0 |
| 20260905201057 | 31 | 267 | 0.0 | 3.2 | 0.00 | 0.00 | 0.00 | 24 | 985.1 |
| 20260905200057 | 30 | 173 | 0.0 | 3.2 | 0.00 | 0.00 | 0.00 | 25 | 985.0 |
| 20260905195556 | 30 | 129 | 0.0 | 4.8 | 0.00 | 0.00 | 0.00 | 24 | 985.1 |
| 20260905195101 | 30 | 292 | 1.6 | 6.4 | 0.00 | 0.00 | 0.00 | 23 | 985.2 |
| 20260905195057 | 30 | 143 | 0.0 | 6.4 | 0.00 | 0.00 | 0.00 | 24 | 985.2 |
| 20260905194057 | 31 | 335 | 1.6 | 6.4 | 0.00 | 0.00 | 0.00 | 22 | 985.3 |
| 20260905193556 | 32 | 278 | 0.0 | 6.4 | 0.00 | 0.00 | 0.00 | 23 | 985.2 |
| 20260905193056 | 31 | 264 | 1.6 | 12.9 | 0.00 | 0.00 | 0.00 | 24 | 985.2 |
| 20260905192557 | 31 | 59 | 3.2 | 16.1 | 0.00 | 0.00 | 0.00 | 24 | 985.3 |
| 20260905192101 | 31 | 96 | 1.6 | 17.7 | 0.00 | 0.00 | 0.00 | 23 | 985.3 |
| 20260905192057 | 31 | 19 | 4.8 | 17.7 | 0.00 | 0.00 | 0.00 | 23 | 985.3 |
| 20260905191056 | 31 | 283 | 1.6 | 8.0 | 0.00 | 0.00 | 0.00 | 23 | 985.3 |
| 20260905190601 | 31 | 290 | 0.0 | 6.4 | 0.00 | 0.00 | 0.00 | 25 | 985.4 |
| 20260905190557 | 31 | 266 | 1.6 | 8.0 | 0.00 | 0.00 | 0.00 | 23 | 985.4 |
| 20260905185556 | 31 | 285 | 0.0 | 6.4 | 0.00 | 0.00 | 0.00 | 24 | 985.4 |
| 20260905185056 | 31 | 117 | 0.0 | 4.8 | 0.00 | 0.00 | 0.00 | 24 | 985.4 |
| 20260905184558 | 31 | 183 | 1.6 | 8.0 | 0.00 | 0.00 | 0.00 | 24 | 985.6 |
| 20260905184057 | 31 | 141 | 1.6 | 8.0 | 0.00 | 0.00 | 0.00 | 24 | 985.6 |
| 20260905183556 | 31 | 287 | 0.0 | 9.7 | 0.00 | 0.00 | 0.00 | 25 | 985.6 |
| 20260905183057 | 31 | 300 | 0.0 | 9.7 | 0.00 | 0.00 | 0.00 | 26 | 985.7 |
| 20260905182557 | 31 | 248 | 0.0 | 6.4 | 0.00 | 0.00 | 0.00 | 25 | 985.8 |
| 20260905182054 | 31 | 141 | 0.0 | 3.2 | 0.00 | 0.00 | 0.00 | 25 | 985.8 |
| 20260905181554 | 31 | 153 | 0.0 | 3.2 | 0.00 | 0.00 | 0.00 | 25 | 985.8 |
| 20260905181052 | 30 | 278 | 0.0 | 4.8 | 0.00 | 0.00 | 0.00 | 25 | 985.9 |
| 20260905180553 | 30 | 177 | 1.6 | 9.7 | 0.00 | 0.00 | 0.00 | 26 | 986.0 |
| 20260905180052 | 30 | 322 | 1.6 | 9.7 | 0.00 | 0.00 | 0.00 | 26 | 986.0 |
| 20260905175552 | 30 | 267 | 0.0 | 4.8 | 0.00 | 0.00 | 0.00 | 25 | 985.9 |
| 20260905175051 | 30 | 248 | 0.0 | 6.4 | 0.00 | 0.00 | 0.00 | 26 | 986.0 |
| 20260905174550 | 30 | 297 | 1.6 | 8.0 | 0.00 | 0.00 | 0.00 | 27 | 986.0 |
| 20260905174050 | 30 | 248 | 1.6 | 8.0 | 0.00 | 0.00 | 0.00 | 27 | 986.1 |
| 20260905173554 | 29 | 257 | 0.0 | 6.4 | 0.00 | 0.00 | 0.00 | 27 | 986.1 |
| 20260905173550 | 30 | 319 | 0.0 | 3.2 | 0.00 | 0.00 | 0.00 | 26 | 986.1 |
| 20260905173154 | 28 | 181 | 0.0 | 3.2 | 0.00 | 0.00 | 0.00 | 29 | 986.4 |
| 20260905172548 | 28 | 293 | 0.0 | 6.4 | 0.00 | 0.00 | 0.00 | 28 | 986.3 |
| 20260905171549 | 28 | 321 | 0.0 | 1.6 | 0.00 | 0.00 | 0.00 | 27 | 986.4 |
| 20260905171049 | 28 | 255 | 0.0 | 8.0 | 0.00 | 0.00 | 0.00 | 28 | 986.1 |
| 20260905170548 | 28 | 29 | 1.6 | 9.7 | 0.00 | 0.00 | 0.00 | 28 | 986.1 |
| 20260905170048 | 27 | 168 | 3.2 | 11.3 | 0.00 | 0.00 | 0.00 | 29 | 986.1 |
| 20260905165548 | 27 | 21 | 3.2 | 11.3 | 0.00 | 0.00 | 0.00 | 28 | 986.1 |
| 20260905165048 | 27 | 17 | 0.0 | 6.4 | 0.00 | 0.00 | 0.00 | 28 | 986.1 |
| 20260905164548 | 27 | 146 | 1.6 | 9.7 | 0.00 | 0.00 | 0.00 | 29 | 986.3 |
| 20260905164046 | 27 | 311 | 1.6 | 9.7 | 0.00 | 0.00 | 0.00 | 28 | 986.1 |
| 20260905163546 | 27 | 326 | 1.6 | 9.7 | 0.00 | 0.00 | 0.00 | 30 | 986.1 |
| 20260905163046 | 26 | 323 | 1.6 | 9.7 | 0.00 | 0.00 | 0.00 | 30 | 986.1 |
| 20260905162546 | 26 | 343 | 1.6 | 8.0 | 0.00 | 0.00 | 0.00 | 30 | 986.1 |
| 20260905162046 | 26 | 30 | 1.6 | 4.8 | 0.00 | 0.00 | 0.00 | 30 | 986.3 |
| 20260905161550 | 26 | 23 | 1.6 | 8.0 | 0.00 | 0.00 | 0.00 | 30 | 986.1 |
| 20260905161546 | 26 | 15 | 1.6 | 8.0 | 0.00 | 0.00 | 0.00 | 29 | 986.1 |
| 20260905160546 | 26 | 311 | 1.6 | 6.4 | 0.00 | 0.00 | 0.00 | 32 | 986.1 |
| 20260905160047 | 25 | 348 | 3.2 | 8.0 | 0.00 | 0.00 | 0.00 | 31 | 986.0 |
| 20260905155548 | 25 | 335 | 1.6 | 8.0 | 0.00 | 0.00 | 0.00 | 32 | 986.0 |
| 20260905155544 | 25 | 321 | 3.2 | 8.0 | 0.00 | 0.00 | 0.00 | 32 | 985.9 |
| 20260905154543 | 25 | 328 | 3.2 | 8.0 | 0.00 | 0.00 | 0.00 | 31 | 985.9 |
| 20260905154044 | 25 | 7 | 3.2 | 11.3 | 0.00 | 0.00 | 0.00 | 31 | 985.9 |
| 20260905153542 | 25 | 310 | 3.2 | 11.3 | 0.00 | 0.00 | 0.00 | 30 | 986.0 |
| 20260905153043 | 25 | 333 | 3.2 | 9.7 | 0.00 | 0.00 | 0.00 | 32 | 986.0 |
| 20260905152546 | 25 | 320 | 0.0 | 6.4 | 0.00 | 0.00 | 0.00 | 33 | 986.0 |
| 20260905152542 | 25 | 2 | 1.6 | 9.7 | 0.00 | 0.00 | 0.00 | 31 | 986.0 |
| 20260905151542 | 24 | 302 | 0.0 | 4.8 | 0.00 | 0.00 | 0.00 | 34 | 986.0 |
| 20260905151042 | 24 | 225 | 0.0 | 4.8 | 0.00 | 0.00 | 0.00 | 36 | 986.0 |
| 20260905150546 | 23 | 1 | 0.0 | 6.4 | 0.00 | 0.00 | 0.00 | 36 | 986.0 |
| 20260905150542 | 23 | 331 | 0.0 | 3.2 | 0.00 | 0.00 | 0.00 | 36 | 986.0 |
| 20260905145542 | 23 | 333 | 0.0 | 6.4 | 0.00 | 0.00 | 0.00 | 37 | 986.0 |
| 20260905145045 | 22 | 231 | 0.0 | 6.4 | 0.00 | 0.00 | 0.00 | 41 | 986.1 |
| 20260905145041 | 22 | 281 | 0.0 | 3.2 | 0.00 | 0.00 | 0.00 | 39 | 986.1 |
| 20260905144042 | 22 | 243 | 1.6 | 6.4 | 0.00 | 0.00 | 0.00 | 42 | 986.0 |
| 20260905143541 | 21 | 311 | 0.0 | 4.8 | 0.00 | 0.00 | 0.00 | 43 | 986.0 |
| 20260905143046 | 20 | 326 | 0.0 | 4.8 | 0.00 | 0.00 | 0.00 | 47 | 986.0 |
| 20260905143042 | 21 | 299 | 0.0 | 4.8 | 0.00 | 0.00 | 0.00 | 44 | 986.0 |
| 20260905142045 | 19 | 305 | 0.0 | 4.8 | 0.00 | 0.00 | 0.00 | 49 | 986.0 |
| 20260905142041 | 18 | 320 | 0.0 | 1.6 | 0.00 | 0.00 | 0.00 | 55 | 985.9 |
| 20260905141040 | 17 | 160 | 0.0 | 0.0 | 0.00 | 0.00 | 0.00 | 60 | 985.8 |
| 20260905140540 | 16 | 162 | 0.0 | 0.0 | 0.00 | 0.00 | 0.00 | 64 | 985.8 |
| 20260905140039 | 16 | 162 | 0.0 | 0.0 | 0.00 | 0.00 | 0.00 | 65 | 985.7 |
| 20260905135540 | 16 | 162 | 0.0 | 0.0 | 0.00 | 0.00 | 0.00 | 67 | 985.7 |
| 20260905135040 | 15 | 162 | 0.0 | 0.0 | 0.00 | 0.00 | 0.00 | 68 | 985.6 |
| 20260905134537 | 15 | 162 | 0.0 | 0.0 | 0.00 | 0.00 | 0.00 | 70 | 985.4 |
| 20260905134038 | 14 | 162 | 0.0 | 0.0 | 0.00 | 0.00 | 0.00 | 72 | 985.4 |
| 20260905133538 | 14 | 162 | 0.0 | 0.0 | 0.00 | 0.00 | 0.00 | 74 | 985.6 |
| 20260905133035 | 13 | 162 | 0.0 | 0.0 | 0.00 | 0.00 | 0.00 | 74 | 985.6 |
| 20260905132534 | 13 | 162 | 0.0 | 0.0 | 0.00 | 0.00 | 0.00 | 74 | 985.6 |
| 20260905132034 | 13 | 162 | 0.0 | 0.0 | 0.00 | 0.00 | 0.00 | 76 | 985.6 |
| 20260905131535 | 13 | 162 | 0.0 | 0.0 | 0.00 | 0.00 | 0.00 | 76 | 985.6 |
| 20260905131034 | 13 | 162 | 0.0 | 0.0 | 0.00 | 0.00 | 0.00 | 77 | 985.6 |
| 20260905130533 | 13 | 162 | 0.0 | 0.0 | 0.00 | 0.00 | 0.00 | 75 | 985.4 |
| 20260905130037 | 13 | 162 | 0.0 | 0.0 | 0.00 | 0.00 | 0.00 | 75 | 985.3 |
| 20260905130033 | 13 | 162 | 0.0 | 0.0 | 0.00 | 0.00 | 0.00 | 75 | 985.4 |
| 20260905125639 | 13 | 162 | 0.0 | 0.0 | 0.00 | 0.00 | 0.00 | 76 | 985.1 |
| 20260905125033 | 13 | 162 | 0.0 | 0.0 | 0.00 | 0.00 | 0.00 | 75 | 985.1 |
| 20260905124033 | 12 | 162 | 0.0 | 0.0 | 0.00 | 0.00 | 0.00 | 77 | 985.1 |
| 20260905123539 | 12 | 162 | 0.0 | 0.0 | 0.00 | 0.00 | 0.00 | 76 | 985.0 |
| 20260905123534 | 12 | 162 | 0.0 | 0.0 | 0.00 | 0.00 | 0.00 | 77 | 985.0 |
| 20260905122533 | 13 | 162 | 0.0 | 0.0 | 0.00 | 0.00 | 0.00 | 74 | 984.8 |
| 20260905122034 | 13 | 134 | 0.0 | 0.0 | 0.00 | 0.00 | 0.00 | 74 | 984.7 |
| 20260905121534 | 13 | 134 | 0.0 | 1.6 | 0.00 | 0.00 | 0.00 | 73 | 984.7 |
| 20260905121038 | 13 | 134 | 0.0 | 0.0 | 0.00 | 0.00 | 0.00 | 72 | 984.7 |
| 20260905121034 | 13 | 134 | 0.0 | 1.6 | 0.00 | 0.00 | 0.00 | 72 | 984.7 |
| 20260905120034 | 13 | 134 | 0.0 | 0.0 | 0.00 | 0.00 | 0.00 | 72 | 984.6 |
| 20260905115533 | 14 | 134 | 0.0 | 0.0 | 0.00 | 0.00 | 0.00 | 71 | 984.6 |
| 20260905115034 | 14 | 177 | 0.0 | 0.0 | 0.00 | 0.00 | 0.00 | 71 | 984.5 |
| 20260905114534 | 14 | 205 | 0.0 | 0.0 | 0.00 | 0.00 | 0.00 | 71 | 984.6 |
| 20260905114034 | 15 | 261 | 0.0 | 0.0 | 0.00 | 0.00 | 0.00 | 71 | 984.6 |
| 20260905113533 | 15 | 308 | 0.0 | 0.0 | 0.00 | 0.00 | 0.00 | 70 | 984.6 |
| 20260905113032 | 15 | 308 | 0.0 | 0.0 | 0.00 | 0.00 | 0.00 | 70 | 984.6 |
| 20260905112532 | 15 | 309 | 0.0 | 0.0 | 0.00 | 0.00 | 0.00 | 70 | 984.6 |
| 20260905112034 | 16 | 308 | 0.0 | 1.6 | 0.00 | 0.00 | 0.00 | 67 | 984.7 |
| 20260905112030 | 15 | 308 | 0.0 | 0.0 | 0.00 | 0.00 | 0.00 | 68 | 984.6 |
| 20260905111030 | 15 | 304 | 0.0 | 1.6 | 0.00 | 0.00 | 0.00 | 68 | 984.6 |
| 20260905110530 | 15 | 130 | 0.0 | 0.0 | 0.00 | 0.00 | 0.00 | 68 | 984.6 |
| 20260905110030 | 16 | 130 | 0.0 | 0.0 | 0.00 | 0.00 | 0.00 | 67 | 984.7 |
| 20260905105527 | 16 | 130 | 0.0 | 1.6 | 0.00 | 0.00 | 0.00 | 66 | 984.6 |
| 20260905105028 | 16 | 130 | 0.0 | 1.6 | 0.00 | 0.00 | 0.00 | 65 | 984.6 |
| 20260905104528 | 16 | 119 | 0.0 | 1.6 | 0.00 | 0.00 | 0.00 | 65 | 984.5 |
| 20260905104028 | 16 | 118 | 0.0 | 1.6 | 0.00 | 0.00 | 0.00 | 64 | 984.5 |
| 20260905103528 | 16 | 137 | 0.0 | 0.0 | 0.00 | 0.00 | 0.00 | 64 | 984.5 |
| 20260905103027 | 17 | 137 | 0.0 | 1.6 | 0.00 | 0.00 | 0.00 | 62 | 984.5 |
| 20260905102527 | 17 | 137 | 0.0 | 3.2 | 0.00 | 0.00 | 0.00 | 63 | 984.5 |
| 20260905102032 | 16 | 158 | 1.6 | 6.4 | 0.00 | 0.00 | 0.00 | 65 | 984.4 |
| 20260905102028 | 17 | 157 | 0.0 | 4.8 | 0.00 | 0.00 | 0.00 | 63 | 984.4 |
| 20260905101527 | 17 | 150 | 1.6 | 4.8 | 0.00 | 0.00 | 0.00 | 64 | 984.4 |
| 20260905100525 | 16 | 202 | 1.6 | 6.4 | 0.00 | 0.00 | 0.00 | 67 | 984.4 |
| 20260905100025 | 16 | 141 | 0.0 | 4.8 | 0.00 | 0.00 | 0.00 | 67 | 984.4 |
| 20260905095528 | 16 | 152 | 0.0 | 0.0 | 0.00 | 0.00 | 0.00 | 68 | 984.6 |
| 20260905095524 | 16 | 190 | 0.0 | 0.0 | 0.00 | 0.00 | 0.00 | 68 | 984.5 |
| 20260905095023 | 16 | 235 | 0.0 | 0.0 | 0.00 | 0.00 | 0.00 | 68 | 984.6 |
| 20260905094024 | 16 | 159 | 0.0 | 0.0 | 0.00 | 0.00 | 0.00 | 66 | 984.5 |
| 20260905093632 | 17 | 149 | 0.0 | 6.4 | 0.00 | 0.00 | 0.00 | 64 | 984.4 |
| 20260905093527 | 17 | 149 | 0.0 | 3.2 | 0.00 | 0.00 | 0.00 | 64 | 984.4 |
| 20260905093523 | 16 | 176 | 0.0 | 0.0 | 0.00 | 0.00 | 0.00 | 65 | 984.4 |
| 20260905092022 | 17 | 159 | 1.6 | 8.0 | 0.00 | 0.00 | 0.00 | 63 | 984.4 |
| 20260905091521 | 17 | 191 | 1.6 | 9.7 | 0.00 | 0.00 | 0.00 | 62 | 984.3 |
| 20260905091026 | 18 | 181 | 3.2 | 8.0 | 0.00 | 0.00 | 0.00 | 60 | 984.4 |
| 20260905091021 | 18 | 181 | 3.2 | 9.7 | 0.00 | 0.00 | 0.00 | 61 | 984.4 |
| 20260905090521 | 18 | 198 | 3.2 | 9.7 | 0.00 | 0.00 | 0.00 | 61 | 984.4 |
| 20260905085521 | 18 | 183 | 1.6 | 6.4 | 0.00 | 0.00 | 0.00 | 59 | 984.5 |
| 20260905085021 | 19 | 176 | 1.6 | 6.4 | 0.00 | 0.00 | 0.00 | 57 | 984.4 |
| 20260905084522 | 19 | 143 | 3.2 | 8.0 | 0.00 | 0.00 | 0.00 | 54 | 984.4 |
| 20260905084025 | 20 | 207 | 3.2 | 6.4 | 0.00 | 0.00 | 0.00 | 54 | 984.4 |
| 20260905084021 | 20 | 186 | 3.2 | 8.0 | 0.00 | 0.00 | 0.00 | 54 | 984.4 |
| 20260905083020 | 20 | 181 | 4.8 | 9.7 | 0.00 | 0.00 | 0.00 | 53 | 984.4 |
| 20260905082519 | 20 | 205 | 6.4 | 12.9 | 0.00 | 0.00 | 0.00 | 54 | 984.4 |
| 20260905082019 | 20 | 194 | 4.8 | 12.9 | 0.00 | 0.00 | 0.00 | 55 | 984.4 |
| 20260905081519 | 19 | 236 | 4.8 | 9.7 | 0.00 | 0.00 | 0.00 | 56 | 984.5 |
| 20260905081019 | 20 | 200 | 4.8 | 11.3 | 0.00 | 0.00 | 0.00 | 56 | 984.5 |
| 20260905080520 | 19 | 192 | 3.2 | 11.3 | 0.00 | 0.00 | 0.00 | 56 | 984.4 |
| 20260905080019 | 19 | 204 | 3.2 | 8.0 | 0.00 | 0.00 | 0.00 | 57 | 984.4 |
| 20260905075524 | 18 | 192 | 1.6 | 8.0 | 0.00 | 0.00 | 0.00 | 58 | 984.5 |
| 20260905075520 | 18 | 174 | 3.2 | 8.0 | 0.00 | 0.00 | 0.00 | 58 | 984.4 |
| 20260905074519 | 19 | 155 | 1.6 | 12.9 | 0.00 | 0.00 | 0.00 | 57 | 984.5 |
| 20260905074018 | 19 | 170 | 4.8 | 12.9 | 0.00 | 0.00 | 0.00 | 57 | 984.5 |
| 20260905073517 | 19 | 148 | 6.4 | 14.5 | 0.00 | 0.00 | 0.00 | 56 | 984.5 |
| 20260905073018 | 19 | 143 | 6.4 | 14.5 | 0.00 | 0.00 | 0.00 | 56 | 984.5 |
| 20260905072517 | 19 | 180 | 3.2 | 12.9 | 0.00 | 0.00 | 0.00 | 56 | 984.6 |
| 20260905072017 | 19 | 210 | 0.0 | 6.4 | 0.00 | 0.00 | 0.00 | 57 | 984.6 |
| 20260905071517 | 19 | 228 | 0.0 | 4.8 | 0.00 | 0.00 | 0.00 | 56 | 984.6 |
| 20260905071017 | 18 | 219 | 0.0 | 4.8 | 0.00 | 0.00 | 0.00 | 57 | 984.7 |
| 20260905070522 | 19 | 147 | 0.0 | 0.0 | 0.00 | 0.00 | 0.00 | 55 | 984.7 |
| 20260905070517 | 18 | 147 | 0.0 | 0.0 | 0.00 | 0.00 | 0.00 | 56 | 984.7 |
| 20260905065515 | 19 | 129 | 0.0 | 0.0 | 0.00 | 0.00 | 0.00 | 56 | 984.6 |
| 20260905065014 | 19 | 207 | 0.0 | 0.0 | 0.00 | 0.00 | 0.00 | 55 | 984.6 |
| 20260905064513 | 20 | 186 | 0.0 | 3.2 | 0.00 | 0.00 | 0.00 | 54 | 984.6 |
| 20260905064017 | 20 | 234 | 1.6 | 6.4 | 0.00 | 0.00 | 0.00 | 54 | 984.6 |
| 20260905064013 | 20 | 223 | 1.6 | 6.4 | 0.00 | 0.00 | 0.00 | 54 | 984.6 |
| 20260905063011 | 19 | 207 | 0.0 | 4.8 | 0.00 | 0.00 | 0.00 | 55 | 984.6 |
| 20260905062510 | 19 | 202 | 0.0 | 3.2 | 0.00 | 0.00 | 0.00 | 55 | 984.6 |
| 20260905062015 | 19 | 316 | 0.0 | 0.0 | 0.00 | 0.00 | 0.00 | 54 | 984.4 |
| 20260905062011 | 19 | 198 | 0.0 | 3.2 | 0.00 | 0.00 | 0.00 | 55 | 984.5 |
| 20260905061011 | 18 | 258 | 0.0 | 0.0 | 0.00 | 0.00 | 0.00 | 56 | 984.4 |
| 20260905060511 | 19 | 204 | 0.0 | 0.0 | 0.00 | 0.00 | 0.00 | 54 | 984.5 |
| 20260905060010 | 19 | 240 | 0.0 | 0.0 | 0.00 | 0.00 | 0.00 | 53 | 984.3 |
| 20260905055515 | 20 | 240 | 0.0 | 1.6 | 0.00 | 0.00 | 0.00 | 50 | 984.1 |
| 20260905055510 | 19 | 240 | 0.0 | 0.0 | 0.00 | 0.00 | 0.00 | 52 | 984.3 |
| 20260905055010 | 20 | 240 | 0.0 | 1.6 | 0.00 | 0.00 | 0.00 | 52 | 984.1 |
| 20260905054009 | 20 | 244 | 0.0 | 1.6 | 0.00 | 0.00 | 0.00 | 50 | 984.3 |
| 20260905053508 | 20 | 230 | 0.0 | 0.0 | 0.00 | 0.00 | 0.00 | 49 | 984.1 |
| 20260905053008 | 20 | 231 | 0.0 | 6.4 | 0.00 | 0.00 | 0.00 | 48 | 984.3 |
| 20260905052508 | 20 | 196 | 1.6 | 6.4 | 0.00 | 0.00 | 0.00 | 49 | 984.3 |
| 20260905052006 | 20 | 210 | 1.6 | 8.0 | 0.00 | 0.00 | 0.00 | 50 | 984.3 |
| 20260905051506 | 20 | 182 | 1.6 | 11.3 | 0.00 | 0.00 | 0.00 | 51 | 984.1 |
| 20260905051006 | 20 | 185 | 3.2 | 11.3 | 0.00 | 0.00 | 0.00 | 51 | 984.3 |
| 20260905050505 | 20 | 153 | 3.2 | 11.3 | 0.00 | 0.00 | 0.00 | 50 | 984.3 |
| 20260905050005 | 20 | 198 | 3.2 | 11.3 | 0.00 | 0.00 | 0.00 | 49 | 984.3 |
| 20260905045507 | 20 | 198 | 3.2 | 9.7 | 0.00 | 0.00 | 0.00 | 49 | 984.3 |
| 20260905045005 | 20 | 210 | 4.8 | 9.7 | 0.00 | 0.00 | 0.00 | 50 | 984.1 |
| 20260905044511 | 20 | 205 | 3.2 | 8.0 | 0.00 | 0.00 | 0.00 | 50 | 984.0 |
| 20260905044506 | 20 | 149 | 4.8 | 8.0 | 0.00 | 0.00 | 0.00 | 50 | 984.1 |
| 20260905043506 | 20 | 205 | 3.2 | 9.7 | 0.00 | 0.00 | 0.00 | 50 | 984.1 |
| 20260905043006 | 20 | 177 | 3.2 | 11.3 | 0.00 | 0.00 | 0.00 | 50 | 984.3 |
| 20260905042505 | 20 | 144 | 3.2 | 11.3 | 0.00 | 0.00 | 0.00 | 50 | 984.1 |
| 20260905042006 | 20 | 173 | 1.6 | 8.0 | 0.00 | 0.00 | 0.00 | 49 | 984.1 |
| 20260905041511 | 20 | 207 | 1.6 | 8.0 | 0.00 | 0.00 | 0.00 | 48 | 984.1 |
| 20260905041506 | 20 | 198 | 1.6 | 8.0 | 0.00 | 0.00 | 0.00 | 49 | 984.3 |
| 20260905040506 | 20 | 158 | 0.0 | 6.4 | 0.00 | 0.00 | 0.00 | 47 | 984.1 |
| 20260905040005 | 20 | 165 | 1.6 | 6.4 | 0.00 | 0.00 | 0.00 | 46 | 984.1 |
| 20260905035505 | 20 | 141 | 3.2 | 9.7 | 0.00 | 0.00 | 0.00 | 45 | 984.1 |
| 20260905035011 | 21 | 172 | 3.2 | 9.7 | 0.00 | 0.00 | 0.00 | 45 | 984.1 |
| 20260905035006 | 21 | 181 | 3.2 | 9.7 | 0.00 | 0.00 | 0.00 | 45 | 984.0 |
| 20260905034011 | 20 | 172 | 0.0 | 9.7 | 0.00 | 0.00 | 0.00 | 45 | 984.1 |
| 20260905034005 | 21 | 151 | 1.6 | 9.7 | 0.00 | 0.00 | 0.00 | 45 | 984.1 |
| 20260905033005 | 20 | 160 | 1.6 | 6.4 | 0.00 | 0.00 | 0.00 | 46 | 984.0 |
| 20260905032505 | 20 | 129 | 1.6 | 6.4 | 0.00 | 0.00 | 0.00 | 46 | 984.1 |
| 20260905032005 | 20 | 166 | 0.0 | 6.4 | 0.00 | 0.00 | 0.00 | 46 | 984.0 |
| 20260905031506 | 20 | 183 | 0.0 | 4.8 | 0.00 | 0.00 | 0.00 | 46 | 983.9 |
| 20260905031006 | 20 | 193 | 0.0 | 3.2 | 0.00 | 0.00 | 0.00 | 46 | 983.9 |
| 20260905030506 | 21 | 179 | 0.0 | 3.2 | 0.00 | 0.00 | 0.00 | 46 | 983.9 |
| 20260905030005 | 21 | 177 | 0.0 | 0.0 | 0.00 | 0.00 | 0.00 | 45 | 983.9 |
| 20260905025505 | 21 | 151 | 0.0 | 0.0 | 0.00 | 0.00 | 0.00 | 44 | 983.7 |
| 20260905025005 | 21 | 139 | 0.0 | 0.0 | 0.00 | 0.00 | 0.00 | 44 | 983.7 |
| 20260905024505 | 20 | 172 | 0.0 | 4.8 | 0.00 | 0.00 | 0.00 | 45 | 983.7 |
| 20260905024005 | 21 | 191 | 0.0 | 4.8 | 0.00 | 0.00 | 0.00 | 45 | 983.5 |
| 20260905023505 | 21 | 159 | 0.0 | 0.0 | 0.00 | 0.00 | 0.00 | 45 | 983.5 |
| 20260905023005 | 21 | 148 | 0.0 | 0.0 | 0.00 | 0.00 | 0.00 | 44 | 983.4 |
| 20260905022506 | 21 | 202 | 0.0 | 1.6 | 0.00 | 0.00 | 0.00 | 44 | 983.3 |
| 20260905022005 | 21 | 146 | 0.0 | 1.6 | 0.00 | 0.00 | 0.00 | 43 | 983.3 |
| 20260905021505 | 21 | 147 | 0.0 | 1.6 | 0.00 | 0.00 | 0.00 | 43 | 983.3 |
| 20260905021005 | 22 | 166 | 0.0 | 3.2 | 0.00 | 0.00 | 0.00 | 43 | 983.2 |
| 20260905020506 | 22 | 197 | 0.0 | 4.8 | 0.00 | 0.00 | 0.00 | 43 | 983.2 |
| 20260905020009 | 22 | 185 | 0.0 | 4.8 | 0.00 | 0.00 | 0.00 | 42 | 983.1 |
| 20260905020006 | 22 | 148 | 0.0 | 4.8 | 0.00 | 0.00 | 0.00 | 43 | 983.2 |
| 20260905015005 | 23 | 256 | 0.0 | 3.2 | 0.00 | 0.00 | 0.00 | 41 | 983.0 |